Regional Weather Roundup
Issued by NWS

Home | Current Version | Previous Version | Text Only | Print | Product List | Glossary Off
Versions: 1 2 3 4 5 6 7 8 9 10 11 12 13 14 15 16 17 18 19 20 21 22 23 24 25 26 27 28 29 30 31 32 33 34 35 36 37 38 39 40 41 42 43 44 45 46 47 48 49 50

000
ASUS45 KTFX 011310
RWRMT
MONTANA REGIONAL WEATHER ROUNDUP
NATIONAL WEATHER SERVICE GREAT FALLS MT
700 AM MDT SAT AUG 01 2015

NOTE: "FAIR" INDICATES FEW OR NO CLOUDS BELOW 12000 FEET WITH NO
SIGNIFICANT WEATHER AND/OR OBSTRUCTIONS TO VISIBILITY.

MTZ001>007-043-011400-
WEST OF THE DIVIDE

CITY           SKY/WX    TMP DP  RH WIND       PRES   REMARKS
KALISPELL      SUNNY     45  39  79 CALM      30.02S
MISSOULA       CLEAR     51  38  60 CALM      30.11R
BUTTE          CLEAR     46  34  62 CALM      30.25R
MULLAN PASS    CLEAR     68  21  16 VRB3      30.22R
DEER LODGE       N/A     46  39  76 W3        30.22S
EUREKA           N/A     48  34  57 CALM      30.01S
HAMILTON         N/A     59  34  38 S6        30.11R
LIBBY            N/A     46  34  61 CALM      30.03R
RONAN            N/A     50  41  71 CALM      30.07R
$$

MTZ008-052>055-011400-
SOUTHWEST MONTANA

CITY           SKY/WX    TMP DP  RH WIND       PRES   REMARKS
BOZEMAN        CLEAR     50  43  77 SE7       30.18R
DILLON         CLEAR     50  36  58 SW10      30.22R
W YELLOWSTONE  CLEAR     36  32  87 CALM      30.36R
THREE FORKS      N/A     45  28  51 CALM      30.14R
$$

MTZ009-010-012-014-046-048-049-054-011400-
EAST SLOPES AND CENTRAL MONTANA

CITY           SKY/WX    TMP DP  RH WIND       PRES   REMARKS
CUT BANK       CLEAR     54  34  46 VRB3      30.02S
GREAT FALLS    CLEAR     59  37  44 N5        30.04S
MALMSTROM AFB  CLEAR     63  37  37 W9        30.04R
HELENA         CLEAR     56  40  55 CALM      30.15R
$$

MTZ011-013-016-021-045-047-050-051-011400-
NORTH CENTRAL MONTANA

CITY           SKY/WX    TMP DP  RH WIND       PRES   REMARKS
HAVRE          CLEAR     59  48  67 SW14      29.93S
LEWISTOWN      CLEAR     59  41  51 SE8       30.07R
CHINOOK          N/A     57  52  82 CALM      29.93R
FORT BENTON      N/A     63  39  42 SW5       29.99S
$$

MTZ017>020-022>027-061-062-011400-
NORTHEAST MONTANA

CITY           SKY/WX    TMP DP  RH WIND       PRES   REMARKS
GLASGOW        SUNNY     60  50  69 SE5       29.95R
JORDAN           N/A     57  45  64 W9        29.97S
SIDNEY         SUNNY     61  54  77 NW3       29.94S
WOLF POINT     SUNNY     58  51  78 CALM      29.95R
MALTA            N/A     56  51  83 CALM      29.89F
PLENTYWOOD       N/A     59  52  77 CALM      29.94F
POPLAR           N/A     61  54  77 CALM      29.94F
$$

MTZ028>42-056>058-011400-
SOUTHCENTRAL AND SOUTHEAST MONTANA

CITY           SKY/WX    TMP DP  RH WIND       PRES   REMARKS
BAKER          SUNNY     62  49  62 CALM      30.00R
BILLINGS       PTCLDY    63  36  36 SW14      30.08R
LIVINGSTON     CLEAR     52  38  58 NW9       30.16S
MILES CITY     SUNNY     60  47  61 SW3       29.98R
FORSYTH          N/A     61  43  51 W7        30.00R
LAUREL           N/A     58  35  42 SW5       30.06R
ROUNDUP          N/A     57  40  53 S14       29.96S
$$

REGIONAL REPORTS...DAKOTAS

CITY           SKY/WX    TMP DP  RH WIND       PRES   REMARKS
WILLISTON      SUNNY     67  54  63 CALM      29.94S
MINOT          MOSUNNY   60  54  80 S5        29.93F
DICKINSON      SUNNY     57  50  77 W8        29.92S
CROSBY         FAIR      55  55 100 CALM      29.95S
BISMARCK       SUNNY     61  56  83 E9        29.92F
GRAND FORKS    SUNNY     63  55  75 CALM      29.93F
FARGO          MOSUNNY   64  57  78 S5        29.96S
BUFFALO SD       N/A     67  51  56 W8        29.93S
RAPID CITY     MOSUNNY   64  59  83 CALM      30.01R
$$

REGIONAL REPORTS...WYOMING/IDAHO/WASHINGTON

CITY           SKY/WX    TMP DP  RH WIND       PRES   REMARKS
GILLETTE       SUNNY     68  48  48 CALM      30.10S
SHERIDAN       SUNNY     62  44  51 CALM      30.10S
BUFFALO WY     MOSUNNY   71  36  27 NW9       30.17R
CODY           CLEAR     64  34  32 SW6       30.19S
YELLOWSTONE LA   N/A     37  31  78 CALM      30.43S
IDAHO FALLS    CLEAR     48  43  82 N7        30.19R
SALMON         CLEAR     46  37  71 CALM      30.20R
BOISE          CLEAR     69  37  30 E6        30.02R
SPOKANE        PTCLDY    68  31  25 S8        29.96R
$$

REGIONAL REPORTS...ALBERTA

CITY           SKY/WX    TMP DP  RH WIND       PRES   REMARKS
EDMONTON       LGT RAIN  59  52  77 NW13G21   29.99R
CALGARY        PTCLDY    55  46  71 S2        29.99S
LETHBRIDGE     CLEAR     54  43  66 SW5       29.97R
MEDICINE HAT   CLEAR     59  45  58 SW12      29.90R
WATERTON GATE    N/A     61  36  39 S10         N/A
MILK RIVER       N/A     54  39  58 W6          N/A
ONEFOUR          N/A     63  41  45 NW10        N/A
$$

REGIONAL REPORTS...SASKATCHEWAN

CITY           SKY/WX    TMP DP  RH WIND       PRES   REMARKS
SWIFT CURRENT  PTSUNNY   61  52  72 S12       29.88F
REGINA         PTSUNNY   59  52  77 SE8       29.91S
SASKATOON      PTSUNNY   59  57  94 S6        29.89F
CYPRESS HILLS    N/A     61  37  41 W3          N/A
VAL MARIE        N/A     57  54  88 NE2         N/A
ROCKGLEN         N/A     59  50  72 S12         N/A
ASSINIBOIA       N/A     59  57  94 N5          N/A
$$


USA.gov is the U.S. government's official web portal to all federal, state and local government web resources and services.